When you browse on this site, cookies collect data to enhance your experience and personalize the content and advertising you see.
Visit our Privacy Policy to learn more. By continuing to use the site, you agree to this use of cookies and data.
  • In Switzerland
  • List of Countries
  • For 7 days
  • Water Temperature
  • Satellite Maps
  • Weather Map
  • Weather Widgets
  • user-avatar
    Login

    Hourly Weather Tovchenykove

    Today, 21 April, Sunday

    Time Temperature Precipitation Wind Pressure Humidity
    00:00 +7°C° 0 mm 0 mps 751 mmHg 57%
    01:00 +7°C° 0 mm 0 mps 751 mmHg 58%
    02:00 +6°C° 0 mm 0 mps 750 mmHg 59%
    03:00 +7°C° 0 mm 1 mps 750 mmHg 61%
    04:00 +7°C° 0 mm 1 mps 750 mmHg 62%
    05:00 +6°C° 0 mm 1 mps 750 mmHg 63%
    06:00 +8°C° 0 mm 1 mps 751 mmHg 59%
    07:00 +9°C° 0 mm 2 mps 751 mmHg 55%
    08:00 +12°C° 0 mm 2 mps 751 mmHg 51%
    09:00 +12°C° 0 mm 2 mps 751 mmHg 47%
    10:00 +12°C° 0 mm 3 mps 751 mmHg 42%
    11:00 +13°C° 0 mm 3 mps 752 mmHg 37%
    12:00 +13°C° 0 mm 3 mps 752 mmHg 37%
    13:00 +13°C° 0 mm 3 mps 752 mmHg 36%
    14:00 +14°C° 0 mm 3 mps 751 mmHg 36%
    15:00 +13°C° 0 mm 3 mps 751 mmHg 38%
    16:00 +13°C° 0 mm 3 mps 751 mmHg 40%
    17:00 +13°C° 0 mm 3 mps 751 mmHg 42%
    18:00 +13°C° 0 mm 2 mps 752 mmHg 45%
    19:00 +10°C° 0 mm 2 mps 752 mmHg 49%
    20:00 +9°C° 0 mm 2 mps 752 mmHg 53%
    21:00 +9°C° 0 mm 2 mps 752 mmHg 53%
    22:00 +9°C° 0 mm 2 mps 753 mmHg 54%
    23:00 +9°C° 0 mm 2 mps 753 mmHg 54%

    Tomorrow, 22 April, Monday

    Time Temperature Precipitation Wind Pressure Humidity
    00:00 +9°C° 0 mm 2 mps 753 mmHg 54%
    01:00 +8°C° 0 mm 2 mps 753 mmHg 55%
    02:00 +8°C° 0 mm 2 mps 753 mmHg 55%
    03:00 +8°C° 0 mm 2 mps 753 mmHg 56%
    04:00 +8°C° 0 mm 2 mps 754 mmHg 57%
    05:00 +8°C° 0 mm 2 mps 754 mmHg 58%
    06:00 +9°C° 0 mm 2 mps 754 mmHg 55%
    07:00 +10°C° 0 mm 2 mps 754 mmHg 52%
    08:00 +12°C° 0 mm 2 mps 754 mmHg 50%
    09:00 +13°C° 0 mm 2 mps 755 mmHg 44%
    10:00 +13°C° 0 mm 3 mps 755 mmHg 39%
    11:00 +14°C° 0 mm 3 mps 755 mmHg 33%
    12:00 +14°C° 0 mm 3 mps 755 mmHg 34%
    13:00 +14°C° 0 mm 3 mps 755 mmHg 34%
    14:00 +15°C° 0 mm 2 mps 755 mmHg 34%
    15:00 +15°C° 0 mm 2 mps 754 mmHg 36%
    16:00 +15°C° 0 mm 2 mps 754 mmHg 39%
    17:00 +15°C° 0 mm 2 mps 754 mmHg 41%
    18:00 +13°C° 0 mm 2 mps 754 mmHg 44%
    19:00 +12°C° 0 mm 1 mps 754 mmHg 48%
    20:00 +10°C° 0 mm 1 mps 755 mmHg 52%
    21:00 +10°C° 0 mm 1 mps 755 mmHg 53%
    22:00 +9°C° 0 mm 1 mps 755 mmHg 54%
    23:00 +9°C° 0 mm 1 mps 755 mmHg 55%

    Day after tomorrow, 23 April, Tuesday

    Time Temperature Precipitation Wind Pressure Humidity
    00:00 +9°C° 0 mm 1 mps 755 mmHg 56%
    01:00 +9°C° 0 mm 1 mps 755 mmHg 57%
    02:00 +8°C° 0 mm 2 mps 755 mmHg 57%
    03:00 +8°C° 0 mm 2 mps 755 mmHg 59%
    04:00 +7°C° 0 mm 2 mps 755 mmHg 60%
    05:00 +7°C° 0 mm 2 mps 756 mmHg 62%
    06:00 +9°C° 0 mm 2 mps 756 mmHg 58%
    07:00 +12°C° 0 mm 2 mps 756 mmHg 55%
    08:00 +13°C° 0 mm 2 mps 756 mmHg 51%
    09:00 +14°C° 0 mm 2 mps 756 mmHg 46%
    10:00 +15°C° 0 mm 2 mps 756 mmHg 42%
    11:00 +16°C° 0 mm 2 mps 756 mmHg 37%
    12:00 +16°C° 0 mm 2 mps 756 mmHg 37%
    13:00 +16°C° 0 mm 2 mps 756 mmHg 38%
    14:00 +16°C° 0 mm 1 mps 756 mmHg 38%
    15:00 +16°C° 0 mm 1 mps 756 mmHg 40%
    16:00 +16°C° 0 mm 1 mps 756 mmHg 41%
    17:00 +16°C° 0 mm 1 mps 755 mmHg 42%
    18:00 +14°C° 0 mm 0 mps 756 mmHg 44%
    19:00 +13°C° 0 mm 0 mps 756 mmHg 46%
    20:00 +12°C° 0 mm 0 mps 756 mmHg 49%
    21:00 +12°C° 0 mm 0 mps 756 mmHg 49%
    22:00 +12°C° 0 mm 0 mps 756 mmHg 50%
    23:00 +11°C° 0 mm 0 mps 756 mmHg 51%

    24 April, Wednesday

    Time Temperature Precipitation Wind Pressure Humidity
    00:00 +11°C° 0 mm 0 mps 756 mmHg 52%
    01:00 +11°C° 0 mm 0 mps 756 mmHg 53%
    02:00 +10°C° 0 mm 0 mps 756 mmHg 54%
    03:00 +11°C° 0 mm 1 mps 756 mmHg 57%
    04:00 +10°C° 0 mm 1 mps 756 mmHg 60%
    05:00 +9°C° 0 mm 1 mps 756 mmHg 63%
    06:00 +11°C° 0 mm 1 mps 756 mmHg 59%
    07:00 +13°C° 0 mm 1 mps 756 mmHg 55%
    08:00 +14°C° 0 mm 1 mps 756 mmHg 51%
    09:00 +15°C° 0 mm 1 mps 756 mmHg 47%
    10:00 +16°C° 0 mm 1 mps 756 mmHg 43%
    11:00 +19°C° 0 mm 1 mps 756 mmHg 38%
    12:00 +19°C° 0 mm 1 mps 756 mmHg 37%
    13:00 +20°C° 0 mm 1 mps 756 mmHg 36%
    14:00 +20°C° 0 mm 1 mps 756 mmHg 35%
    15:00 +18°C° 0 mm 0 mps 755 mmHg 36%
    16:00 +18°C° 0 mm 0 mps 755 mmHg 37%
    17:00 +18°C° 0 mm 0 mps 755 mmHg 38%
    18:00 +16°C° 0 mm 0 mps 755 mmHg 42%
    19:00 +14°C° 0 mm 0 mps 755 mmHg 46%
    20:00 +13°C° 0 mm 0 mps 755 mmHg 50%
    21:00 +12°C° 0 mm 0 mps 755 mmHg 52%
    22:00 +12°C° 0 mm 0 mps 755 mmHg 53%
    23:00 +11°C° 0 mm 0 mps 755 mmHg 55%

    25 April, Thursday

    Time Temperature Precipitation Wind Pressure Humidity
    00:00 +11°C° 0 mm 0 mps 755 mmHg 56%
    01:00 +12°C° 0 mm 1 mps 755 mmHg 58%
    02:00 +11°C° 0 mm 1 mps 755 mmHg 59%
    03:00 +11°C° 0 mm 1 mps 755 mmHg 61%
    04:00 +10°C° 0 mm 1 mps 755 mmHg 63%
    05:00 +10°C° 0 mm 1 mps 755 mmHg 64%
    06:00 +12°C° 0 mm 1 mps 755 mmHg 60%
    07:00 +14°C° 0 mm 1 mps 755 mmHg 56%
    08:00 +16°C° 0 mm 1 mps 755 mmHg 51%
    09:00 +18°C° 0 mm 1 mps 755 mmHg 48%
    10:00 +19°C° 0 mm 1 mps 755 mmHg 44%
    11:00 +20°C° 0 mm 2 mps 755 mmHg 41%
    12:00 +20°C° 0 mm 2 mps 755 mmHg 41%
    13:00 +20°C° 0 mm 2 mps 754 mmHg 41%
    14:00 +21°C° 0 mm 2 mps 754 mmHg 41%
    15:00 +20°C° 0 mm 2 mps 754 mmHg 43%
    16:00 +20°C° 0 mm 2 mps 753 mmHg 46%
    17:00 +20°C° 0 mm 2 mps 753 mmHg 48%
    18:00 +18°C° 0 mm 2 mps 753 mmHg 52%
    19:00 +17°C° 0 mm 2 mps 753 mmHg 55%
    20:00 +16°C° 0 mm 2 mps 752 mmHg 59%
    21:00 +15°C° 0 mm 2 mps 752 mmHg 61%
    22:00 +14°C° 0 mm 2 mps 752 mmHg 63%
    23:00 +13°C° 0 mm 1 mps 752 mmHg 66%

    26 April, Friday

    Time Temperature Precipitation Wind Pressure Humidity
    00:00 +13°C° 0 mm 2 mps 752 mmHg 65%
    01:00 +12°C° 0 mm 2 mps 752 mmHg 65%
    02:00 +12°C° 0 mm 2 mps 751 mmHg 65%
    03:00 +12°C° 0 mm 2 mps 751 mmHg 68%
    04:00 +10°C° 0 mm 2 mps 751 mmHg 70%
    05:00 +10°C° 0 mm 2 mps 751 mmHg 73%
    06:00 +12°C° 0 mm 3 mps 751 mmHg 69%
    07:00 +13°C° 0 mm 3 mps 750 mmHg 65%
    08:00 +16°C° 0 mm 3 mps 750 mmHg 62%
    09:00 +17°C° 0 mm 4 mps 750 mmHg 57%
    10:00 +19°C° 0 mm 5 mps 750 mmHg 52%
    11:00 +20°C° 0 mm 6 mps 749 mmHg 47%
    12:00 +20°C° 0 mm 6 mps 749 mmHg 47%
    13:00 +20°C° 0 mm 6 mps 748 mmHg 47%
    14:00 +21°C° 0 mm 6 mps 748 mmHg 47%
    15:00 +20°C° 0 mm 5 mps 748 mmHg 50%
    16:00 +20°C° 0 mm 5 mps 747 mmHg 53%
    17:00 +20°C° 0 mm 4 mps 747 mmHg 55%
    18:00 +18°C° 0 mm 4 mps 746 mmHg 59%
    19:00 +17°C° 0 mm 4 mps 746 mmHg 63%
    20:00 +15°C° 0 mm 4 mps 746 mmHg 67%
    21:00 +14°C° 0 mm 4 mps 746 mmHg 69%
    22:00 +14°C° 0 mm 4 mps 745 mmHg 70%
    23:00 +13°C° 0 mm 4 mps 745 mmHg 72%
    Show more